Regional Weather Roundup
Issued by NWS Midland/Odessa, TX

Home | Current Version | Previous Version | Text Only | Print | Product List | Glossary On
Versions: 1 2 3 4 5 6 7 8 9 10 11 12 13 14 15 16 17 18 19 20 21 22 23 24 25 26 27 28 29 30 31 32 33 34 35 36 37 38 39 40 41 42 43 44 45 46 47 48 49 50
000
ASUS44 KMAF 171402
RWRMAF
MIDLAND AREA WEATHER ROUNDUP
NATIONAL WEATHER SERVICE MIDLAND TX
900 AM CDT WED SEP 17 2014

...IN SOUTHWEST TEXAS AND SOUTHEAST NEW MEXICO...

CITY           SKY/WX    TMP DP  RH WIND       PRES   REMARKS
ALPINE         PTSUNNY   66  62  85 CALM      30.19R
ANDREWS        FAIR      68  67  96 CALM      30.09R
ARTESIA        NOT AVBL
BIG SPRING     PTSUNNY   74  68  81 SE8       30.08R
CARLSBAD       PTSUNNY   68  32  26 NW3       30.07R HAZE
DRYDEN           N/A     77  72  84 E5        30.02R
FORT STOCKTON  PTSUNNY   69  66  90 SE8       30.06R
GUAD PASS      MOSUNNY   62  60  93 E10       30.20R
HOBBS          PTSUNNY   64  64 100 CALM      30.11R
MARFA          PTSUNNY   63  61  94 N3        30.18R
MIDLAND AIRPK  NOT AVBL
MIDLAND INTL   PTSUNNY   71  67  87 SE8       30.06R
ODESSA         PTSUNNY   71  66  84 S5        30.07S
PECOS          PTSUNNY   68  65  90 E7        30.04R
PRESIDIO       FAIR      74  63  68 N7        30.03R
SEMINOLE       PTSUNNY   67  66  96 CALM      30.10R
SNYDER         CLOUDY    71  69  92 S5        30.05S
WINK           CLOUDY    72  67  84 E6        30.04R
$$
...OTHER STATIONS IN TEXAS...

CITY           SKY/WX    TMP DP  RH WIND       PRES   REMARKS
ABILENE        CLOUDY    76  70  82 SE3       30.02S
AMARILLO       PTSUNNY   64  62  93 SW8       30.08S
AUSTIN         CLOUDY    77  74  90 E3        29.98R
BROWNSVILLE    SUNNY     81  78  91 S3        29.94R
CORPUS CHRISTI CLOUDY    80  77  90 S9        29.95R
DALLAS FTW     PTSUNNY   80  71  74 S8        29.97S
DEL RIO        CLOUDY    77  74  90 E7        29.96R
EL PASO        LGT RAIN  68  64  87 N7        30.09R
HOUSTON INT    PTSUNNY   79  77  94 NE3       29.97R
LUBBOCK        CLOUDY    67  65  93 SE3       30.08S
SAN ANGELO     MOSUNNY   75  69  81 CALM      30.03R
SAN ANTONIO    CLOUDY    79  77  94 E6        29.98R FOG
WACO           CLOUDY    75  72  90 S7        29.98F
WICHITA FALLS  NOT AVBL
$$
...OTHER LOCATIONS IN NEW MEXICO...

CITY           SKY/WX    TMP DP  RH WIND       PRES   REMARKS
ALAMAGORDO     CLOUDY    64  64 100 NW8       30.11S
ALBUQUERQUE    CLOUDY    63  57  81 E3        30.18S
CANNON AFB     LGT RAIN  64 N/A N/A SW6       30.14R
CLOVIS           N/A     64  61  88 W6        30.16R
HOLLOMAN AFB   DRIZZLE   64  64 100 N3        30.11R
ROSWELL        CLOUDY    67  65  93 CALM      30.10R FOG
RUIDOSO        RAIN      55  55 100 N5        30.28R
SANTA FE       CLOUDY    57  51  80 CALM      30.22S
TRUTH OR CONSE CLOUDY    62  61  96 N3        30.14R
TUCUMCARI      CLOUDY    66  61  84 W5        30.09R
$$


USA.gov is the U.S. government's official web portal to all federal, state and local government web resources and services.